When you browse on this site, cookies collect data to enhance your experience and personalize the content and advertising you see.
Visit our Privacy Policy to learn more. By continuing to use the site, you agree to this use of cookies and data.
  • In Czech Republic
  • List of Countries
  • For 7 days
  • Water Temperature
  • Weather Map
  • Weather Widgets
  • user-avatar
    Login

    Hourly Weather Maloszyce

    Today, 26 January, Sunday

    Time Temperature Precipitation Wind Pressure Humidity
    00:00 -2°C° 0 mm 2 mps 740 mmHg 71%
    01:00 -2°C° 0 mm 2 mps 740 mmHg 71%
    02:00 0°C° 0 mm 1 mps 740 mmHg 72%
    03:00 0°C° 0 mm 1 mps 739 mmHg 72%
    04:00 0°C° 0 mm 1 mps 739 mmHg 72%
    05:00 0°C° 0 mm 1 mps 739 mmHg 72%
    06:00 0°C° 0 mm 1 mps 739 mmHg 72%
    07:00 0°C° 0 mm 1 mps 739 mmHg 72%
    08:00 0°C° 0 mm 1 mps 739 mmHg 69%
    09:00 -1°C° 0 mm 2 mps 739 mmHg 66%
    10:00 +1°C° 0 mm 2 mps 740 mmHg 64%
    11:00 +1°C° 0 mm 2 mps 739 mmHg 62%
    12:00 +2°C° 0 mm 2 mps 739 mmHg 60%
    13:00 +2°C° 0 mm 2 mps 738 mmHg 58%
    14:00 +2°C° 0 mm 2 mps 738 mmHg 61%
    15:00 +1°C° 0 mm 2 mps 738 mmHg 64%
    16:00 +1°C° 0 mm 2 mps 738 mmHg 67%
    17:00 -1°C° 0 mm 2 mps 738 mmHg 69%
    18:00 -1°C° 0 mm 2 mps 738 mmHg 71%
    19:00 -1°C° 0 mm 2 mps 737 mmHg 73%
    20:00 -1°C° 0 mm 2 mps 737 mmHg 75%
    21:00 -1°C° 0 mm 2 mps 737 mmHg 77%
    22:00 -1°C° 0 mm 3 mps 737 mmHg 79%
    23:00 -1°C° 0 mm 3 mps 737 mmHg 82%

    Tomorrow, 27 January, Monday

    Time Temperature Precipitation Wind Pressure Humidity
    00:00 -1°C° 0 mm 3 mps 737 mmHg 84%
    01:00 -1°C° 0 mm 3 mps 737 mmHg 87%
    02:00 -1°C° 0 mm 3 mps 737 mmHg 87%
    03:00 -1°C° 0 mm 3 mps 736 mmHg 88%
    04:00 -1°C° 0 mm 3 mps 736 mmHg 89%
    05:00 -1°C° 0 mm 3 mps 736 mmHg 90%
    06:00 -1°C° 0 mm 3 mps 736 mmHg 90%
    07:00 -1°C° 0 mm 3 mps 736 mmHg 91%
    08:00 -1°C° 0 mm 3 mps 736 mmHg 87%
    09:00 0°C° 0 mm 3 mps 736 mmHg 84%
    10:00 +1°C° 0 mm 3 mps 736 mmHg 80%
    11:00 +2°C° 0 mm 3 mps 736 mmHg 77%
    12:00 +2°C° 0 mm 3 mps 735 mmHg 74%
    13:00 +3°C° 0 mm 3 mps 735 mmHg 71%
    14:00 +2°C° 0 mm 3 mps 735 mmHg 75%
    15:00 +2°C° 0 mm 2 mps 735 mmHg 79%
    16:00 +2°C° 0 mm 2 mps 734 mmHg 84%
    17:00 +1°C° 0 mm 2 mps 734 mmHg 85%
    18:00 +1°C° 0 mm 2 mps 734 mmHg 86%
    19:00 0°C° 0 mm 3 mps 734 mmHg 88%
    20:00 0°C° 0 mm 3 mps 733 mmHg 88%
    21:00 -1°C° 0 mm 3 mps 733 mmHg 89%
    22:00 -1°C° 0 mm 3 mps 733 mmHg 90%
    23:00 -1°C° 0 mm 3 mps 732 mmHg 89%

    Day after tomorrow, 28 January, Tuesday

    Time Temperature Precipitation Wind Pressure Humidity
    00:00 -1°C° 0 mm 3 mps 732 mmHg 89%
    01:00 -1°C° 0 mm 3 mps 731 mmHg 89%
    02:00 -1°C° 0 mm 3 mps 731 mmHg 88%
    03:00 0°C° 0 mm 3 mps 730 mmHg 87%
    04:00 0°C° 0 mm 3 mps 729 mmHg 86%
    05:00 0°C° 0 mm 3 mps 729 mmHg 85%
    06:00 0°C° 0 mm 3 mps 728 mmHg 83%
    07:00 0°C° 0 mm 3 mps 728 mmHg 82%
    08:00 +1°C° 0 mm 3 mps 727 mmHg 78%
    09:00 +1°C° 0 mm 3 mps 727 mmHg 75%
    10:00 +2°C° 0 mm 3 mps 726 mmHg 71%
    11:00 +3°C° 0 mm 3 mps 726 mmHg 71%
    12:00 +3°C° 0 mm 3 mps 725 mmHg 71%
    13:00 +4°C° 0 mm 3 mps 724 mmHg 72%
    14:00 +4°C° 0.7 mm 2 mps 724 mmHg 79%
    15:00 +3°C° 0.7 mm 2 mps 723 mmHg 87%
    16:00 +3°C° 0.7 mm 2 mps 723 mmHg 95%
    17:00 +2°C° 0.2 mm 2 mps 723 mmHg 95%
    18:00 +1°C° 0.2 mm 3 mps 723 mmHg 95%
    19:00 +1°C° 0.2 mm 3 mps 722 mmHg 95%
    20:00 +1°C° 0.3 mm 3 mps 722 mmHg 96%
    21:00 +1°C° 0.3 mm 3 mps 722 mmHg 96%
    22:00 +1°C° 0.3 mm 3 mps 722 mmHg 97%
    23:00 0°C° 0.2 mm 4 mps 722 mmHg 95%

    29 January, Wednesday

    Time Temperature Precipitation Wind Pressure Humidity
    00:00 0°C° 0.2 mm 5 mps 722 mmHg 94%
    01:00 -1°C° 0.2 mm 6 mps 722 mmHg 92%
    02:00 -2°C° 0.1 mm 6 mps 722 mmHg 89%
    03:00 -2°C° 0.1 mm 6 mps 722 mmHg 87%
    04:00 -2°C° 0.1 mm 6 mps 722 mmHg 84%
    05:00 -2°C° 0 mm 5 mps 722 mmHg 81%
    06:00 -2°C° 0 mm 5 mps 723 mmHg 78%
    07:00 -2°C° 0 mm 5 mps 723 mmHg 75%
    08:00 -2°C° 0 mm 5 mps 723 mmHg 75%
    09:00 -2°C° 0 mm 6 mps 723 mmHg 76%
    10:00 -2°C° 0 mm 6 mps 724 mmHg 76%
    11:00 -1°C° 0 mm 6 mps 724 mmHg 74%
    12:00 -1°C° 0 mm 6 mps 724 mmHg 71%
    13:00 +1°C° 0 mm 6 mps 724 mmHg 68%
    14:00 -1°C° 0.1 mm 6 mps 724 mmHg 74%
    15:00 -1°C° 0.1 mm 6 mps 724 mmHg 79%
    16:00 -2°C° 0.1 mm 6 mps 725 mmHg 85%
    17:00 -1°C° 0 mm 5 mps 725 mmHg 84%
    18:00 -1°C° 0 mm 5 mps 725 mmHg 83%
    19:00 -1°C° 0 mm 4 mps 725 mmHg 81%
    20:00 -1°C° 0.1 mm 5 mps 726 mmHg 84%
    21:00 -2°C° 0.1 mm 6 mps 726 mmHg 86%
    22:00 -3°C° 0.1 mm 7 mps 726 mmHg 89%
    23:00 -3°C° 0.4 mm 7 mps 726 mmHg 91%

    30 January, Thursday

    Time Temperature Precipitation Wind Pressure Humidity
    00:00 -4°C° 0.4 mm 8 mps 726 mmHg 93%
    01:00 -4°C° 0.4 mm 8 mps 726 mmHg 95%
    02:00 -2°C° 0.3 mm 8 mps 727 mmHg 93%
    03:00 -2°C° 0.3 mm 8 mps 727 mmHg 90%
    04:00 -2°C° 0.3 mm 7 mps 728 mmHg 88%
    05:00 -2°C° 0.1 mm 7 mps 728 mmHg 87%
    06:00 -2°C° 0.1 mm 7 mps 729 mmHg 86%
    07:00 -2°C° 0.1 mm 7 mps 730 mmHg 84%
    08:00 -3°C° 0.1 mm 7 mps 730 mmHg 85%
    09:00 -3°C° 0.1 mm 7 mps 731 mmHg 86%
    10:00 -3°C° 0.1 mm 7 mps 731 mmHg 86%
    11:00 -2°C° 0.1 mm 7 mps 731 mmHg 87%
    12:00 -2°C° 0.1 mm 7 mps 731 mmHg 88%
    13:00 -2°C° 0.1 mm 7 mps 731 mmHg 88%
    14:00 -2°C° 0.1 mm 7 mps 732 mmHg 91%
    15:00 -2°C° 0.1 mm 6 mps 732 mmHg 93%
    16:00 -2°C° 0.1 mm 6 mps 732 mmHg 95%
    17:00 -2°C° 0.1 mm 6 mps 733 mmHg 93%
    18:00 -2°C° 0.1 mm 6 mps 733 mmHg 90%
    19:00 -1°C° 0.1 mm 5 mps 734 mmHg 88%
    20:00 -1°C° 0.1 mm 5 mps 734 mmHg 89%
    21:00 -1°C° 0.1 mm 5 mps 735 mmHg 91%
    22:00 -1°C° 0.1 mm 5 mps 735 mmHg 92%
    23:00 -1°C° 0 mm 5 mps 735 mmHg 91%

    31 January, Friday

    Time Temperature Precipitation Wind Pressure Humidity
    00:00 -1°C° 0 mm 5 mps 735 mmHg 89%
    01:00 -1°C° 0 mm 5 mps 735 mmHg 88%
    02:00 -1°C° 0 mm 5 mps 735 mmHg 88%
    03:00 -1°C° 0 mm 5 mps 735 mmHg 88%
    04:00 -1°C° 0 mm 5 mps 735 mmHg 89%
    05:00 -2°C° 0 mm 5 mps 736 mmHg 87%
    06:00 -2°C° 0 mm 5 mps 736 mmHg 86%
    07:00 -2°C° 0 mm 4 mps 736 mmHg 84%
    08:00 -1°C° 0 mm 5 mps 736 mmHg 81%
    09:00 -1°C° 0 mm 5 mps 736 mmHg 79%
    10:00 0°C° 0 mm 5 mps 736 mmHg 76%
    11:00 0°C° 0 mm 5 mps 736 mmHg 73%
    12:00 +1°C° 0 mm 5 mps 736 mmHg 70%
    13:00 +1°C° 0 mm 4 mps 735 mmHg 67%
    14:00 +1°C° 0 mm 4 mps 735 mmHg 68%
    15:00 +2°C° 0 mm 3 mps 735 mmHg 70%
    16:00 +1°C° 0 mm 3 mps 735 mmHg 71%
    17:00 +1°C° 0 mm 3 mps 735 mmHg 72%
    18:00 +1°C° 0 mm 3 mps 736 mmHg 72%
    19:00 -1°C° 0 mm 4 mps 736 mmHg 73%
    20:00 -1°C° 0 mm 4 mps 736 mmHg 74%
    21:00 -1°C° 0 mm 4 mps 736 mmHg 74%
    22:00 -1°C° 0 mm 4 mps 735 mmHg 75%
    23:00 -2°C° 0 mm 4 mps 735 mmHg 75%
    Show more